QPF
0.00 0.00 0.00 0.00 0.00 0.00 0.00 0.00 0.00 0.00 0.00 0.00 0.00 0.00 0.00 0.00 0.00 0.00 0.00 0.00 0.00 0.00 0.00 0.00 0.04 0.03 0.02 0.00 0.02 0.00 0.00 0.00 0.00 0.00 0.00 0.00 0.00 0.00 0.00 0.00 0.00 0.00 0.00 0.00 0.00 0.00 0.00 0.00 0.00
0.00 0.00 0.00 0.00 0.00 0.00 0.00 0.00 0.00 0.00 0.00 0.00 0.00 0.00 0.00 0.00 0.00 0.00 0.00 0.00 0.00 0.00 0.00 0.00 0.01 0.02 0.01 0.01 0.01 0.00 0.00 0.00 0.00 0.00 0.00 0.00 0.00 0.00 0.00 0.00 0.00 0.00 0.00 0.00 0.00 0.00 0.00 0.00 0.00
0.00 0.00 0.00 0.00 0.00 0.00 0.00 0.00 0.00 0.00 0.00 0.00 0.00 0.00 0.00 0.00 0.00 0.00 0.00 0.00 0.00 0.00 0.00 0.00 0.00 0.02 0.01 0.01 0.00 0.01 0.02 0.01 0.00 0.00 0.00 0.00 0.00 0.00 0.00 0.00 0.00 0.00 0.00 0.00 0.00 0.00 0.00 0.00 0.00
0.00 0.00 0.00 0.00 0.00 0.00 0.00 0.00 0.00 0.00 0.00 0.00 0.00 0.00 0.00 0.00 0.00 0.00 0.00 0.00 0.00 0.00 0.00 0.00 0.01 0.02 0.01 0.00 0.00 0.00 0.01 0.01 0.00 0.00 0.00 0.00 0.00 0.00 0.00 0.00 0.00 0.00 0.00 0.00 0.00 0.00 0.00 0.00 0.00
0.00 0.00 0.00 0.00 0.00 0.00 0.00 0.00 0.00 0.00 0.00 0.00 0.00 0.00 0.00 0.00 0.00 0.00 0.00 0.00 0.00 0.00 0.00 0.00 0.01 0.03 0.03 0.01 0.00 0.00 0.02 0.02 0.00 0.00 0.00 0.00 0.00 0.00 0.00 0.00 0.00 0.00 0.00 0.00 0.00 0.00 0.00 0.00 0.00
0.00 0.00 0.00 0.00 0.00 0.00 0.00 0.00 0.00 0.00 0.00 0.00 0.00 0.00 0.00 0.00 0.00 0.00 0.00 0.00 0.00 0.00 0.01 0.00 0.00 0.00 0.01 0.01 0.02 0.02 0.04 0.04 0.02 0.01 0.00 0.00 0.00 0.00 0.00 0.00 0.00 0.00 0.00 0.00 0.00 0.00 0.00 0.00 0.00
0.00 0.00 0.00 0.00 0.00 0.00 0.00 0.00 0.00 0.00 0.00 0.00 0.00 0.00 0.00 0.00 0.00 0.00 0.00 0.00 0.00 0.00 0.00 0.01 0.00 0.00 0.00 0.00 0.00 0.00 0.02 0.02 0.02 0.01 0.00 0.00 0.00 0.00 0.00 0.00 0.00 0.00 0.00 0.00 0.00 0.00 0.00 0.00 0.00
0.00 0.00 0.00 0.00 0.00 0.00 0.00 0.00 0.00 0.00 0.00 0.00 0.00 0.00 0.00 0.00 0.00 0.00 0.00 0.00 0.00 0.00 0.00 0.00 0.00 0.00 0.00 0.00 0.00 0.00 0.00 0.00 0.00 0.00 0.00 0.00 0.00 0.00 0.00 0.00 0.00 0.00 0.00 0.00 0.00 0.00 0.00 0.00 0.00
0.00 0.00 0.00 0.00 0.00 0.00 0.00 0.00 0.00 0.00 0.00 0.00 0.00 0.00 0.00 0.00 0.00 0.00 0.00 0.00 0.00 0.00 0.00 0.00 0.00 0.00 0.00 0.00 0.00 0.00 0.00 0.00 0.00 0.00 0.00 0.00 0.00 0.00 0.00 0.00 0.00 0.00 0.00 0.00 0.00 0.00 0.00 0.00 0.00
0.00 0.00 0.00 0.00 0.00 0.00 0.00 0.00 0.00 0.00 0.00 0.00 0.00 0.00 0.00 0.00 0.00 0.00 0.00 0.00 0.00 0.00 0.00 0.00 0.00 0.00 0.00 0.01 0.01 0.01 0.01 0.00 0.01 0.01 0.01 0.00 0.00 0.00 0.00 0.00 0.00 0.00 0.00 0.00 0.00 0.00 0.00 0.00 0.00
0.00 0.00 0.00 0.00 0.00 0.00 0.00 0.00 0.00 0.00 0.00 0.00 0.00 0.00 0.00 0.00 0.00 0.00 0.00 0.00 0.00 0.00 0.00 0.00 0.00 0.00 0.00 0.00 0.01 0.02 0.02 0.02 0.01 0.01 0.02 0.00 0.00 0.00 0.00 0.00 0.00 0.00 0.00 0.00 0.00 0.00 0.00 0.00 0.00
0.00 0.00 0.00 0.00 0.00 0.00 0.00 0.00 0.00 0.00 0.00 0.00 0.00 0.00 0.00 0.00 0.00 0.00 0.00 0.00 0.00 0.00 0.00 0.00 0.00 0.00 0.00 0.00 0.00 0.01 0.01 0.02 0.02 0.02 0.01 0.02 0.01 0.00 0.00 0.00 0.00 0.00 0.00 0.00 0.00 0.00 0.00 0.00 0.00
0.00 0.00 0.00 0.00 0.00 0.00 0.00 0.00 0.00 0.00 0.00 0.00 0.00 0.00 0.00 0.00 0.00 0.00 0.00 0.00 0.00 0.00 0.00 0.00 0.00 0.00 0.00 0.00 0.00 0.00 0.00 0.01 0.01 0.02 0.03 0.03 0.01 0.00 0.00 0.00 0.00 0.00 0.00 0.00 0.00 0.00 0.00 0.00 0.00
0.00 0.00 0.00 0.00 0.00 0.00 0.00 0.00 0.00 0.00 0.00 0.00 0.00 0.00 0.00 0.00 0.00 0.00 0.00 0.00 0.00 0.00 0.00 0.00 0.00 0.00 0.00 0.00 0.00 0.00 0.00 0.00 0.00 0.00 0.01 0.01 0.02 0.00 0.00 0.00 0.00 0.00 0.00 0.00 0.00 0.00 0.00 0.00 0.00
0.00 0.00 0.00 0.00 0.00 0.00 0.00 0.00 0.00 0.00 0.00 0.00 0.00 0.00 0.00 0.00 0.00 0.00 0.00 0.00 0.00 0.00 0.00 0.00 0.00 0.00 0.00 0.00 0.00 0.00 0.00 0.00 0.00 0.00 0.00 0.01 0.01 0.00 0.00 0.00 0.00 0.00 0.00 0.00 0.00 0.00 0.00 0.00 0.00
0.00 0.00 0.00 0.00 0.00 0.00 0.00 0.00 0.00 0.00 0.00 0.00 0.00 0.00 0.00 0.00 0.00 0.00 0.00 0.00 0.00 0.00 0.00 0.00 0.00 0.00 0.00 0.00 0.00 0.00 0.00 0.00 0.00 0.00 0.00 0.00 0.01 0.01 0.00 0.00 0.00 0.00 0.00 0.00 0.00 0.00 0.00 0.00 0.00
0.00 0.00 0.00 0.00 0.00 0.00 0.00 0.00 0.00 0.00 0.00 0.00 0.00 0.00 0.00 0.00 0.00 0.00 0.00 0.00 0.00 0.00 0.00 0.00 0.00 0.00 0.00 0.00 0.00 0.00 0.00 0.00 0.00 0.00 0.00 0.00 0.00 0.00 0.00 0.00 0.00 0.00 0.00 0.00 0.00 0.00 0.00 0.00 0.00
0.00 0.00 0.00 0.00 0.00 0.00 0.00 0.00 0.00 0.00 0.00 0.00 0.00 0.00 0.00 0.00 0.00 0.00 0.00 0.00 0.00 0.00 0.00 0.00 0.00 0.00 0.00 0.00 0.00 0.00 0.00 0.00 0.00 0.00 0.00 0.00 0.00 0.00 0.00 0.00 0.00 0.00 0.00 0.00 0.00 0.00 0.00 0.00 0.00
0.00 0.00 0.00 0.00 0.00 0.00 0.00 0.00 0.00 0.00 0.00 0.00 0.00 0.00 0.00 0.00 0.00 0.00 0.00 0.00 0.00 0.00 0.00 0.00 0.00 0.00 0.00 0.00 0.00 0.00 0.00 0.00 0.00 0.00 0.00 0.00 0.00 0.00 0.00 0.00 0.00 0.00 0.00 0.00 0.00 0.00 0.00 0.00 0.00
0.00 0.00 0.00 0.00 0.00 0.00 0.00 0.00 0.00 0.00 0.00 0.00 0.00 0.00 0.00 0.00 0.00 0.00 0.00 0.00 0.00 0.00 0.00 0.00 0.00 0.00 0.00 0.00 0.00 0.00 0.00 0.00 0.00 0.00 0.00 0.00 0.00 0.00 0.00 0.00 0.00 0.00 0.00 0.00 0.00 0.00 0.00 0.00 0.00
0.00 0.00 0.00 0.00 0.00 0.00 0.00 0.00 0.00 0.00 0.00 0.00 0.00 0.00 0.00 0.00 0.00 0.00 0.00 0.00 0.00 0.00 0.00 0.00 0.00 0.00 0.00 0.00 0.00 0.00 0.00 0.00 0.00 0.00 0.00 0.00 0.00 0.00 0.00 0.00 0.00 0.00 0.00 0.00 0.00 0.00 0.00 0.00 0.00
0.00 0.00 0.00 0.00 0.00 0.00 0.00 0.00 0.00 0.00 0.00 0.00 0.00 0.00 0.00 0.00 0.00 0.00 0.00 0.00 0.00 0.00 0.00 0.00 0.00 0.00 0.00 0.00 0.00 0.00 0.00 0.00 0.00 0.00 0.00 0.00 0.00 0.00 0.00 0.00 0.00 0.00 0.00 0.00 0.00 0.00 0.00 0.00 0.00
0.00 0.00 0.00 0.00 0.00 0.00 0.00 0.00 0.00 0.00 0.00 0.00 0.00 0.00 0.00 0.00 0.00 0.00 0.00 0.00 0.00 0.00 0.00 0.00 0.00 0.00 0.00 0.00 0.00 0.00 0.00 0.00 0.00 0.00 0.00 0.00 0.00 0.00 0.00 0.00 0.00 0.00 0.00 0.00 0.00 0.00 0.00 0.00 0.00
0.00 0.00 0.00 0.00 0.00 0.00 0.00 0.00 0.00 0.00 0.00 0.00 0.00 0.00 0.00 0.00 0.00 0.00 0.00 0.00 0.00 0.00 0.00 0.00 0.00 0.00 0.00 0.00 0.00 0.00 0.00 0.00 0.00 0.00 0.00 0.00 0.00 0.00 0.00 0.00 0.00 0.00 0.00 0.00 0.00 0.00 0.00 0.00 0.00
0.00 0.00 0.00 0.00 0.00 0.00 0.00 0.00 0.00 0.00 0.00 0.00 0.00 0.00 0.00 0.00 0.00 0.00 0.00 0.00 0.00 0.00 0.00 0.00 0.00 0.00 0.00 0.00 0.00 0.00 0.00 0.00 0.00 0.00 0.00 0.00 0.00 0.00 0.00 0.00 0.00 0.00 0.00 0.00 0.00 0.00 0.00 0.00 0.00
0.00 0.00 0.00 0.00 0.00 0.00 0.00 0.00 0.00 0.00 0.00 0.00 0.00 0.00 0.00 0.00 0.00 0.00 0.00 0.00 0.00 0.00 0.00 0.00 0.00 0.00 0.00 0.00 0.00 0.00 0.00 0.00 0.00 0.00 0.00 0.00 0.00 0.00 0.00 0.00 0.00 0.00 0.00 0.00 0.00 0.00 0.00 0.00 0.00
0.00 0.00 0.00 0.00 0.00 0.00 0.00 0.00 0.00 0.00 0.00 0.00 0.00 0.00 0.00 0.00 0.00 0.00 0.00 0.00 0.00 0.00 0.00 0.00 0.00 0.00 0.00 0.00 0.00 0.00 0.00 0.00 0.00 0.00 0.00 0.00 0.00 0.00 0.00 0.00 0.00 0.00 0.00 0.00 0.00 0.00 0.00 0.00 0.00
0.00 0.00 0.00 0.00 0.00 0.00 0.00 0.00 0.00 0.00 0.00 0.00 0.00 0.00 0.00 0.00 0.00 0.00 0.00 0.00 0.00 0.00 0.00 0.00 0.00 0.00 0.00 0.00 0.00 0.00 0.00 0.00 0.00 0.00 0.00 0.00 0.00 0.00 0.00 0.00 0.00 0.00 0.00 0.00 0.00 0.00 0.00 0.00 0.00
0.00 0.00 0.00 0.00 0.00 0.00 0.00 0.00 0.00 0.00 0.00 0.00 0.00 0.00 0.00 0.00 0.00 0.00 0.00 0.00 0.00 0.00 0.00 0.00 0.00 0.00 0.00 0.00 0.00 0.00 0.00 0.00 0.00 0.00 0.00 0.00 0.00 0.00 0.00 0.00 0.00 0.00 0.00 0.00 0.00 0.00 0.00 0.00 0.00
0.00 0.00 0.00 0.00 0.00 0.00 0.00 0.00 0.00 0.00 0.00 0.00 0.00 0.00 0.00 0.00 0.00 0.00 0.00 0.00 0.00 0.00 0.00 0.00 0.00 0.00 0.00 0.00 0.00 0.00 0.00 0.00 0.00 0.00 0.00 0.00 0.00 0.00 0.00 0.00 0.00 0.00 0.00 0.00 0.00 0.00 0.00 0.00 0.00
MSLP
1013.47 1013.45 1013.56 1014.01 1016.20 1018.00 1018.50 1018.43 1018.20 1018.24 1018.40 1018.44 1018.58 1018.89 1019.21 1019.53 1019.40 1020.00 1019.20 1019.22 1019.13 1019.40 1019.59 1019.76 1019.99 1020.26 1020.45 1020.65 1020.84 1020.93 1021.05 1021.07 1021.23 1021.64 1021.78 1021.94 1022.05 1022.05 1022.04 1022.06 1022.03 1021.99 1021.87 1022.01 1021.97 1022.06 1022.07 1021.96 1022.14
1013.65 1013.58 1014.08 1015.71 1017.48 1018.91 1019.12 1018.36 1018.11 1018.01 1018.26 1018.47 1018.66 1019.03 1019.25 1019.50 1019.25 1019.16 1019.22 1019.12 1019.23 1019.44 1019.64 1019.86 1020.09 1020.38 1020.66 1020.81 1020.85 1020.97 1021.13 1021.43 1021.70 1021.92 1022.02 1022.23 1022.21 1022.44 1022.31 1022.57 1022.41 1022.43 1022.40 1022.41 1022.41 1022.39 1022.44 1022.47 1022.65
1013.67 1013.85 1015.45 1016.95 1018.60 1018.92 1018.57 1018.08 1017.96 1018.14 1018.34 1018.48 1019.01 1019.28 1019.36 1019.39 1019.21 1019.09 1018.82 1018.90 1019.19 1019.56 1019.78 1020.06 1020.18 1020.41 1020.61 1020.93 1021.02 1021.24 1021.42 1021.70 1021.89 1022.17 1022.26 1022.48 1022.65 1022.77 1022.79 1022.98 1022.78 1022.88 1022.72 1022.84 1022.87 1022.87 1022.96 1023.04 1023.22
1013.98 1014.87 1016.99 1017.50 1018.28 1018.11 1017.91 1017.71 1017.82 1018.37 1018.41 1018.58 1018.97 1019.64 1019.47 1019.17 1019.21 1019.12 1019.05 1018.97 1019.27 1019.68 1019.89 1020.14 1020.34 1020.51 1020.75 1020.91 1021.10 1021.42 1021.62 1021.81 1022.01 1022.22 1022.47 1022.77 1023.03 1023.12 1023.13 1023.20 1023.17 1023.30 1023.34 1023.34 1023.39 1023.47 1023.46 1023.61 1023.87
1014.77 1016.08 1017.50 1018.18 1018.09 1017.71 1017.60 1017.55 1017.91 1018.33 1018.43 1018.81 1019.06 1019.61 1019.65 1019.30 1019.20 1019.18 1019.13 1019.15 1019.47 1019.79 1019.99 1020.26 1020.45 1020.67 1020.83 1021.09 1021.26 1021.53 1021.75 1022.05 1022.34 1022.77 1022.93 1022.94 1023.13 1023.22 1023.46 1023.43 1023.65 1023.60 1023.59 1023.74 1023.80 1023.86 1023.94 1024.17 1024.36
1015.83 1016.92 1018.19 1018.53 1018.01 1017.52 1017.40 1017.45 1017.86 1018.21 1018.50 1018.95 1019.34 1019.74 1019.73 1019.45 1019.44 1019.47 1019.42 1019.50 1019.43 1019.57 1020.02 1020.27 1020.51 1020.74 1020.99 1021.25 1021.54 1021.80 1022.06 1022.37 1022.58 1022.77 1022.94 1023.15 1023.39 1023.61 1023.72 1023.83 1023.89 1023.96 1024.17 1024.21 1024.29 1024.33 1024.61 1024.65 1025.01
1016.05 1017.62 1018.42 1018.34 1018.00 1017.43 1017.21 1017.38 1017.87 1018.14 1018.48 1018.78 1019.06 1020.01 1019.87 1019.69 1019.63 1019.74 1019.74 1019.80 1019.78 1019.81 1020.01 1020.28 1020.50 1020.84 1021.15 1021.41 1021.67 1021.83 1022.06 1022.35 1022.63 1022.85 1023.12 1023.40 1023.69 1023.94 1024.12 1024.19 1024.25 1024.39 1024.56 1024.68 1024.77 1025.01 1025.15 1025.45 1025.67
1016.36 1017.54 1018.61 1018.43 1018.06 1017.25 1016.92 1017.27 1017.23 1017.78 1018.41 1018.74 1018.95 1019.55 1019.76 1019.53 1019.83 1019.97 1020.06 1020.25 1020.35 1020.37 1020.48 1020.60 1020.76 1020.88 1021.20 1021.46 1021.69 1021.92 1022.12 1022.40 1022.72 1023.07 1023.37 1023.69 1023.96 1024.22 1024.44 1024.58 1024.71 1024.85 1024.97 1025.17 1025.35 1025.61 1025.80 1026.10 1026.30
1016.31 1017.55 1018.49 1018.13 1018.01 1016.91 1016.81 1017.10 1017.41 1017.72 1018.25 1018.74 1018.94 1019.17 1019.28 1019.53 1020.08 1020.42 1020.60 1020.76 1020.76 1020.82 1020.86 1020.94 1020.93 1020.95 1021.16 1021.34 1021.60 1021.93 1022.16 1022.41 1022.79 1023.20 1023.56 1023.91 1024.14 1024.41 1024.70 1024.88 1025.13 1025.33 1025.52 1025.75 1025.98 1026.18 1026.44 1026.65 1026.86
1016.64 1017.72 1017.49 1017.01 1016.92 1016.67 1016.70 1016.95 1017.40 1017.89 1018.39 1018.77 1018.99 1019.15 1019.52 1019.83 1020.25 1020.58 1020.73 1020.89 1020.97 1021.09 1021.14 1021.16 1021.31 1021.05 1021.24 1021.32 1021.60 1021.88 1022.11 1022.38 1022.68 1023.11 1023.64 1023.98 1024.27 1024.56 1024.94 1025.21 1025.42 1025.76 1026.02 1026.28 1026.52 1026.71 1026.87 1027.08 1027.44
1016.68 1016.91 1016.85 1016.52 1016.45 1016.54 1016.70 1017.03 1017.26 1017.79 1018.52 1018.15 1018.32 1018.89 1019.65 1020.09 1020.37 1020.56 1020.71 1020.74 1020.82 1021.01 1021.11 1021.15 1021.50 1021.50 1021.48 1021.55 1021.59 1021.86 1022.12 1022.41 1022.57 1022.98 1023.51 1023.89 1024.36 1024.77 1025.13 1025.45 1025.74 1026.16 1026.58 1026.99 1027.23 1027.43 1027.53 1027.67 1027.81
1016.45 1016.53 1016.44 1016.28 1016.27 1016.52 1016.71 1016.89 1017.22 1017.61 1017.25 1017.57 1017.92 1018.51 1019.48 1019.96 1020.21 1020.27 1020.46 1020.69 1020.88 1021.12 1021.27 1021.36 1021.65 1021.71 1021.73 1021.82 1021.78 1021.76 1021.96 1022.18 1022.53 1022.88 1023.27 1023.79 1024.22 1024.73 1025.21 1025.66 1026.05 1026.37 1026.96 1027.45 1027.76 1028.02 1028.23 1028.27 1028.48
1016.29 1016.46 1016.41 1016.33 1016.37 1016.48 1016.65 1016.93 1017.24 1017.20 1017.21 1017.67 1018.18 1018.84 1019.48 1019.89 1020.03 1020.27 1020.45 1020.75 1021.01 1021.25 1021.42 1021.62 1021.82 1021.86 1021.91 1021.93 1021.83 1021.76 1021.69 1021.99 1022.17 1022.54 1023.05 1023.54 1024.22 1024.63 1025.13 1025.69 1026.12 1026.40 1026.90 1027.57 1028.02 1028.23 1028.54 1028.80 1028.98
1016.59 1016.63 1016.68 1016.59 1016.64 1016.67 1016.90 1017.26 1017.42 1016.92 1017.41 1018.09 1018.64 1018.97 1019.38 1019.70 1019.83 1020.32 1020.65 1020.72 1021.01 1021.28 1021.51 1021.67 1021.85 1021.86 1021.98 1022.01 1021.71 1021.83 1021.90 1022.10 1022.30 1022.53 1022.86 1023.37 1023.89 1024.54 1025.04 1025.72 1026.29 1026.55 1026.88 1027.63 1028.05 1028.36 1028.72 1029.08 1029.49
1017.00 1017.19 1017.12 1016.95 1016.97 1017.05 1017.21 1017.77 1017.29 1017.17 1017.83 1018.45 1018.97 1019.19 1019.57 1019.73 1020.00 1019.77 1019.97 1020.50 1020.81 1021.16 1021.38 1021.57 1021.74 1021.83 1021.97 1021.99 1021.89 1022.06 1022.13 1022.31 1022.62 1022.95 1023.11 1023.43 1023.91 1024.49 1025.05 1025.79 1026.32 1026.64 1027.01 1027.71 1028.28 1028.70 1029.11 1029.65 1030.35
1017.97 1018.09 1018.14 1017.50 1017.49 1017.49 1017.74 1017.61 1017.07 1017.26 1018.03 1018.55 1018.99 1019.36 1019.49 1019.46 1019.38 1019.75 1019.96 1020.27 1020.63 1021.01 1021.33 1021.50 1021.52 1021.55 1021.77 1022.00 1022.01 1022.21 1022.40 1022.51 1022.88 1023.14 1023.32 1023.58 1024.04 1024.60 1025.22 1025.88 1026.41 1026.70 1027.30 1027.85 1028.55 1029.02 1029.69 1030.34 1031.08
1019.22 1019.09 1019.01 1018.22 1017.89 1018.00 1018.26 1017.94 1017.35 1017.74 1018.39 1018.76 1018.98 1019.19 1019.33 1019.30 1019.29 1019.31 1019.43 1019.88 1020.31 1020.64 1021.01 1021.31 1021.46 1021.58 1021.82 1022.09 1022.19 1022.49 1022.70 1022.98 1023.21 1023.33 1023.51 1023.77 1024.02 1024.53 1025.21 1025.91 1026.63 1026.99 1027.72 1028.34 1028.77 1029.80 1029.78 1030.79 1031.66
1019.44 1019.57 1019.31 1018.94 1018.39 1018.53 1018.66 1017.93 1017.78 1017.87 1018.43 1018.53 1018.65 1018.77 1018.92 1018.87 1017.99 1018.40 1018.97 1019.46 1019.91 1020.28 1020.63 1020.96 1021.22 1021.38 1021.68 1022.20 1022.58 1022.84 1023.13 1023.42 1023.71 1023.66 1023.92 1024.08 1024.46 1024.77 1025.41 1025.86 1026.49 1027.13 1027.93 1028.95 1029.60 1030.10 1030.94 1031.11 1031.71
1019.06 1019.42 1019.42 1019.01 1018.45 1018.83 1018.55 1018.15 1017.68 1017.48 1018.03 1017.99 1017.92 1017.83 1017.62 1017.60 1016.35 1017.69 1018.31 1019.00 1019.61 1020.01 1020.36 1020.61 1020.94 1021.19 1021.49 1022.13 1022.65 1022.94 1023.42 1023.87 1024.05 1024.31 1024.40 1024.53 1024.76 1025.21 1025.33 1025.92 1026.61 1027.21 1028.06 1028.99 1029.46 1030.16 1030.93 1032.12 1032.27
1019.11 1019.52 1019.60 1019.08 1018.75 1019.05 1018.57 1018.09 1017.20 1017.14 1016.67 1016.15 1016.19 1016.25 1016.14 1016.13 1016.18 1016.74 1017.57 1018.27 1018.79 1019.24 1019.77 1020.22 1020.35 1020.78 1021.11 1021.53 1022.14 1022.46 1023.28 1024.13 1024.41 1024.74 1024.82 1024.99 1025.06 1025.41 1025.59 1026.10 1026.99 1027.66 1028.38 1029.17 1029.50 1029.79 1031.14 1032.23 1032.51
1019.17 1019.49 1019.52 1019.38 1019.12 1019.09 1018.85 1017.62 1016.76 1015.24 1015.23 1014.94 1014.68 1014.39 1014.54 1014.49 1014.84 1015.65 1016.60 1017.06 1017.99 1018.57 1018.95 1019.43 1019.89 1020.41 1020.81 1021.32 1022.14 1022.85 1023.60 1024.23 1024.71 1024.99 1025.23 1025.46 1025.37 1025.80 1026.06 1026.59 1027.18 1027.82 1028.19 1028.89 1029.37 1029.69 1030.04 1031.73 1032.62
1018.91 1018.62 1019.08 1019.56 1020.13 1019.91 1019.10 1017.95 1016.26 1015.07 1014.33 1014.01 1013.19 1013.26 1012.87 1013.16 1013.74 1014.45 1015.29 1016.22 1016.77 1017.02 1017.96 1018.61 1019.27 1019.74 1020.36 1020.91 1021.66 1021.90 1022.56 1023.52 1024.03 1024.60 1025.27 1025.71 1025.75 1026.23 1026.60 1026.95 1027.36 1027.81 1028.35 1028.91 1029.27 1029.47 1029.93 1030.66 1031.96
1018.29 1018.54 1019.32 1019.81 1020.39 1020.38 1019.46 1019.29 1015.18 1014.73 1014.11 1012.95 1012.01 1011.61 1011.65 1011.98 1012.70 1013.45 1014.15 1014.64 1015.36 1016.57 1017.21 1018.05 1018.86 1019.40 1019.93 1020.48 1021.07 1021.61 1022.28 1022.92 1023.65 1024.55 1025.37 1025.78 1026.22 1026.54 1026.98 1027.27 1027.67 1028.08 1028.52 1028.90 1029.11 1029.77 1030.18 1030.48 1031.23
1018.13 1018.83 1019.91 1020.70 1020.99 1020.46 1018.28 1018.28 1014.37 1013.70 1012.31 1011.89 1010.83 1010.60 1010.68 1011.57 1012.34 1013.05 1013.64 1014.43 1015.11 1016.03 1016.81 1017.52 1018.32 1018.92 1019.52 1020.09 1020.68 1021.19 1021.90 1022.70 1023.65 1024.63 1025.25 1025.97 1026.37 1027.06 1027.35 1027.58 1027.87 1028.24 1028.64 1028.85 1029.28 1029.84 1030.05 1030.49 1030.90
1018.02 1018.96 1020.41 1021.26 1021.66 1019.24 1018.00 1017.93 1013.27 1011.74 1011.39 1010.89 1010.56 1009.97 1010.51 1011.36 1012.18 1012.98 1013.68 1014.32 1014.97 1015.54 1016.24 1017.04 1017.69 1018.40 1019.10 1019.79 1020.43 1020.92 1021.54 1022.19 1022.71 1023.61 1024.53 1025.61 1026.46 1027.31 1027.62 1027.82 1028.20 1028.47 1028.65 1028.90 1029.42 1029.93 1030.40 1030.82 1031.33
1017.69 1017.93 1019.14 1020.10 1021.12 1019.27 1018.17 1016.01 1012.23 1010.64 1010.05 1009.87 1009.83 1009.93 1010.74 1011.62 1012.21 1012.84 1013.50 1014.04 1014.59 1015.17 1015.62 1016.17 1016.87 1017.71 1018.55 1019.30 1020.02 1020.73 1021.29 1021.95 1022.68 1023.39 1023.85 1024.43 1025.26 1026.24 1027.18 1027.78 1028.16 1028.45 1028.63 1029.14 1029.67 1030.16 1030.73 1031.17 1031.61
1017.14 1017.56 1017.51 1018.94 1020.82 1020.37 1016.32 1013.39 1011.49 1010.37 1009.88 1009.86 1009.48 1010.05 1010.79 1011.56 1012.23 1012.89 1013.52 1013.86 1014.40 1014.86 1015.27 1015.84 1016.40 1017.17 1017.87 1018.72 1019.65 1020.37 1020.99 1021.60 1022.32 1023.13 1023.96 1024.39 1024.82 1025.90 1026.99 1027.62 1028.23 1028.54 1028.85 1029.32 1029.85 1030.37 1030.98 1031.49 1032.03
1015.59 1016.17 1017.72 1018.82 1020.13 1019.52 1015.23 1013.69 1011.55 1010.29 1009.46 1009.12 1009.45 1009.64 1010.30 1011.15 1012.09 1012.80 1013.46 1013.77 1014.24 1014.58 1015.01 1015.56 1016.23 1016.93 1017.57 1018.34 1019.19 1019.95 1020.57 1021.29 1022.07 1022.94 1023.71 1024.33 1025.09 1025.72 1026.79 1027.64 1028.13 1028.58 1029.07 1029.55 1030.03 1030.79 1031.36 1031.71 1032.34
1015.99 1016.02 1016.82 1017.56 1018.22 1017.89 1016.28 1011.27 1009.24 1008.80 1008.21 1008.60 1008.83 1009.21 1009.98 1010.69 1011.77 1012.48 1013.12 1013.40 1013.89 1014.39 1014.84 1015.12 1015.71 1016.52 1017.35 1018.09 1018.87 1019.55 1020.29 1021.02 1021.81 1022.57 1023.40 1024.07 1024.96 1025.79 1026.55 1027.33 1028.00 1028.65 1029.25 1029.80 1030.24 1030.89 1031.51 1031.87 1032.23
1014.64 1014.45 1015.16 1016.21 1017.29 1017.26 1015.96 1009.95 1008.09 1008.15 1008.08 1008.31 1008.47 1009.17 1009.62 1010.34 1011.32 1012.19 1013.01 1013.44 1014.01 1014.52 1014.97 1015.34 1015.70 1016.11 1016.72 1017.70 1018.60 1019.35 1020.01 1020.76 1021.56 1022.30 1023.12 1023.95 1024.77 1025.68 1026.34 1027.22 1027.92 1028.65 1029.26 1029.80 1030.23 1030.77 1031.28 1031.61 1032.08
Thickness
5747 5747 5746 5736 5699 5678 5672 5683 5693 5692 5694 5695 5696 5691 5689 5685 5686 5670 5699 5700 5700 5698 5696 5694 5691 5689 5687 5685 5683 5681 5682 5683 5683 5682 5682 5682 5681 5681 5684 5685 5685 5686 5688 5687 5687 5686 5687 5688 5687
5747 5747 5740 5712 5679 5663 5667 5687 5693 5698 5697 5693 5696 5695 5690 5685 5695 5698 5699 5703 5701 5699 5697 5695 5692 5690 5687 5686 5684 5684 5683 5680 5679 5678 5679 5678 5681 5678 5682 5680 5683 5683 5683 5683 5683 5683 5684 5683 5683
5747 5745 5723 5692 5666 5668 5673 5694 5698 5700 5695 5700 5693 5693 5692 5691 5699 5700 5707 5706 5703 5699 5697 5695 5693 5690 5689 5686 5687 5685 5683 5681 5679 5677 5678 5678 5677 5677 5678 5676 5679 5678 5681 5679 5679 5679 5678 5677 5676
5742 5733 5709 5688 5692 5696 5700 5701 5701 5695 5701 5700 5695 5688 5695 5702 5701 5704 5706 5706 5703 5700 5698 5695 5693 5691 5689 5688 5687 5684 5683 5681 5681 5680 5679 5676 5674 5673 5674 5674 5675 5674 5674 5675 5674 5674 5674 5673 5670
5734 5717 5689 5683 5692 5700 5702 5705 5698 5697 5702 5698 5698 5688 5691 5702 5705 5705 5706 5705 5703 5700 5698 5695 5693 5690 5689 5687 5686 5684 5682 5679 5677 5673 5673 5675 5674 5674 5672 5673 5670 5671 5672 5670 5670 5670 5670 5667 5666
5716 5707 5680 5678 5691 5703 5708 5707 5703 5703 5699 5695 5692 5686 5692 5701 5703 5703 5704 5703 5703 5702 5698 5696 5693 5691 5689 5687 5684 5682 5679 5677 5676 5675 5674 5673 5671 5669 5668 5667 5667 5667 5665 5665 5665 5665 5662 5662 5658
5712 5694 5684 5687 5692 5703 5709 5704 5702 5700 5698 5699 5697 5686 5695 5700 5702 5701 5701 5701 5701 5700 5699 5696 5694 5691 5688 5686 5684 5682 5680 5679 5677 5675 5673 5671 5667 5665 5664 5664 5663 5662 5661 5661 5660 5658 5657 5654 5653
5707 5696 5685 5686 5685 5700 5712 5708 5712 5707 5703 5701 5702 5691 5694 5701 5700 5700 5699 5697 5697 5697 5696 5694 5692 5691 5688 5685 5683 5681 5679 5678 5675 5673 5671 5668 5665 5662 5661 5660 5658 5657 5657 5655 5654 5651 5650 5647 5646
5714 5685 5677 5689 5686 5707 5711 5711 5709 5707 5700 5700 5700 5699 5703 5700 5697 5696 5695 5694 5693 5693 5693 5692 5690 5689 5687 5685 5683 5680 5678 5676 5673 5671 5669 5666 5663 5660 5657 5656 5654 5653 5651 5649 5647 5646 5644 5643 5641
5699 5680 5689 5701 5700 5708 5708 5711 5704 5705 5699 5699 5699 5701 5699 5697 5694 5693 5693 5691 5691 5690 5690 5690 5688 5688 5686 5684 5682 5679 5677 5675 5673 5670 5667 5664 5661 5659 5655 5652 5650 5648 5646 5643 5641 5640 5640 5639 5637
5698 5691 5700 5709 5710 5709 5706 5707 5705 5698 5694 5701 5702 5702 5696 5694 5692 5692 5692 5691 5690 5689 5688 5688 5685 5684 5683 5682 5680 5678 5676 5673 5672 5670 5666 5663 5660 5657 5654 5651 5648 5644 5640 5638 5637 5635 5634 5632 5631
5700 5703 5703 5710 5710 5706 5704 5705 5704 5699 5709 5710 5707 5704 5696 5694 5693 5692 5691 5690 5687 5685 5684 5683 5681 5681 5680 5678 5677 5677 5675 5673 5671 5668 5665 5661 5659 5655 5651 5647 5643 5641 5636 5631 5628 5627 5626 5625 5622
5699 5700 5704 5706 5706 5706 5707 5705 5702 5701 5708 5706 5704 5699 5696 5693 5692 5690 5688 5686 5683 5681 5680 5678 5677 5677 5676 5676 5675 5675 5675 5672 5670 5667 5663 5661 5655 5653 5648 5643 5640 5638 5633 5628 5624 5621 5619 5616 5614
5695 5697 5698 5699 5701 5702 5701 5699 5701 5708 5701 5700 5696 5696 5695 5693 5691 5687 5683 5683 5679 5678 5676 5675 5673 5673 5673 5672 5672 5671 5670 5668 5666 5664 5661 5657 5653 5648 5645 5639 5635 5633 5629 5623 5619 5616 5612 5609 5605
5690 5689 5689 5691 5694 5695 5696 5689 5691 5704 5697 5696 5691 5690 5689 5687 5685 5688 5686 5680 5678 5675 5674 5672 5670 5670 5668 5668 5668 5667 5666 5663 5661 5658 5655 5652 5649 5644 5639 5634 5630 5627 5624 5619 5613 5609 5605 5600 5595
5675 5670 5668 5685 5684 5690 5690 5674 5696 5697 5691 5693 5689 5685 5684 5685 5685 5682 5679 5677 5674 5671 5669 5668 5668 5667 5665 5663 5663 5661 5659 5658 5654 5651 5650 5647 5643 5638 5634 5628 5624 5622 5616 5612 5606 5601 5595 5590 5584
5651 5654 5657 5668 5675 5680 5677 5679 5693 5685 5683 5687 5685 5682 5680 5680 5680 5678 5677 5675 5672 5669 5666 5664 5663 5662 5660 5658 5658 5655 5653 5650 5647 5645 5643 5641 5638 5634 5629 5624 5618 5615 5609 5603 5598 5591 5588 5580 5573
5645 5649 5651 5657 5673 5668 5667 5671 5680 5683 5678 5683 5682 5679 5677 5677 5687 5682 5675 5672 5669 5666 5663 5661 5659 5658 5656 5652 5649 5647 5645 5643 5640 5639 5636 5634 5630 5627 5622 5618 5613 5608 5601 5593 5588 5582 5575 5570 5565
5651 5650 5652 5656 5667 5662 5659 5664 5679 5682 5676 5679 5681 5679 5683 5683 5696 5680 5674 5668 5664 5662 5659 5657 5656 5654 5652 5647 5644 5642 5637 5633 5631 5629 5627 5626 5624 5619 5617 5611 5606 5600 5594 5586 5580 5574 5568 5557 5554
5650 5647 5642 5648 5655 5651 5654 5660 5678 5678 5683 5690 5693 5691 5689 5689 5684 5678 5671 5666 5664 5662 5658 5655 5655 5650 5649 5646 5642 5639 5632 5625 5623 5620 5618 5615 5615 5611 5609 5604 5597 5591 5584 5577 5573 5570 5558 5549 5547
5639 5634 5634 5640 5647 5642 5644 5648 5666 5690 5690 5694 5695 5701 5697 5697 5696 5682 5672 5670 5663 5660 5656 5653 5651 5647 5644 5640 5634 5629 5623 5617 5614 5610 5608 5605 5605 5601 5599 5594 5588 5582 5578 5572 5567 5564 5560 5544 5537
5629 5636 5636 5636 5631 5621 5640 5618 5667 5685 5692 5693 5703 5697 5702 5700 5695 5689 5678 5670 5666 5665 5657 5653 5648 5645 5640 5634 5629 5628 5623 5616 5611 5606 5600 5596 5595 5590 5586 5583 5579 5575 5570 5565 5560 5557 5551 5545 5533
5632 5631 5625 5627 5617 5618 5616 5612 5667 5671 5682 5700 5707 5708 5703 5699 5693 5689 5682 5678 5672 5662 5655 5649 5643 5640 5635 5629 5625 5621 5616 5610 5604 5598 5591 5587 5584 5580 5576 5573 5569 5565 5560 5556 5553 5546 5541 5538 5529
5624 5621 5609 5596 5600 5602 5620 5618 5665 5663 5683 5696 5711 5705 5699 5694 5685 5680 5674 5668 5663 5656 5649 5644 5638 5634 5628 5623 5618 5614 5607 5602 5595 5587 5583 5577 5573 5569 5566 5562 5559 5555 5551 5548 5543 5537 5532 5527 5521
5621 5614 5592 5585 5568 5613 5609 5603 5669 5684 5684 5691 5702 5704 5697 5690 5678 5668 5663 5659 5654 5651 5646 5640 5634 5628 5621 5615 5610 5606 5601 5596 5593 5586 5579 5570 5564 5557 5554 5551 5547 5544 5541 5538 5532 5526 5520 5514 5507
5603 5612 5589 5574 5573 5604 5597 5606 5643 5679 5688 5690 5690 5693 5687 5677 5670 5662 5658 5655 5650 5645 5643 5638 5633 5623 5615 5609 5603 5597 5593 5588 5582 5577 5574 5569 5563 5554 5547 5542 5538 5535 5532 5526 5520 5514 5507 5501 5494
5597 5595 5615 5598 5503 5551 5623 5640 5653 5667 5676 5677 5681 5681 5677 5668 5663 5655 5649 5646 5642 5639 5636 5631 5626 5617 5611 5604 5596 5590 5585 5580 5574 5567 5561 5559 5554 5547 5539 5533 5527 5523 5519 5513 5506 5500 5493 5486 5478
5603 5603 5581 5563 5564 5542 5613 5616 5635 5662 5672 5674 5675 5675 5669 5662 5658 5647 5641 5639 5634 5631 5628 5624 5617 5609 5603 5597 5590 5583 5578 5573 5566 5559 5553 5548 5543 5538 5529 5522 5516 5511 5505 5499 5493 5484 5477 5470 5462
5586 5585 5585 5579 5565 5558 5554 5640 5652 5664 5670 5671 5672 5671 5666 5657 5647 5639 5634 5632 5628 5623 5618 5616 5611 5603 5596 5589 5582 5577 5571 5565 5558 5552 5546 5541 5534 5527 5520 5512 5504 5497 5491 5484 5478 5469 5461 5454 5447
5587 5592 5584 5568 5556 5539 5556 5638 5661 5655 5653 5655 5660 5662 5663 5653 5641 5630 5625 5620 5617 5612 5607 5603 5601 5598 5592 5582 5575 5568 5562 5556 5550 5545 5538 5531 5524 5516 5509 5500 5492 5484 5477 5469 5462 5455 5447 5440 5432